TimePDT,TemperatureF,Dew PointF,Humidity,Sea Level PressureIn,VisibilityMPH,Wind Direction,Wind SpeedMPH,Gust SpeedMPH,PrecipitationIn,Events,Conditions,WindDirDegrees,DateUTC
12:52 AM,51.1,43.0,74,29.86,-9999.0,NNE,5.8,-,N/A,,Unknown,30,2013-05-20 07:52:00
1:52 AM,46.9,42.1,83,29.86,-9999.0,NE,4.6,-,N/A,,Unknown,50,2013-05-20 08:52:00
2:52 AM,48.0,43.0,83,29.86,-9999.0,NNE,3.5,-,N/A,,Unknown,30,2013-05-20 09:52:00
3:52 AM,48.0,42.1,80,29.86,-9999.0,NE,4.6,-,N/A,,Unknown,50,2013-05-20 10:52:00
4:52 AM,48.0,43.0,83,29.86,-9999.0,Calm,Calm,-,N/A,,Unknown,0,2013-05-20 11:52:00
5:52 AM,46.0,41.0,83,29.87,-9999.0,NE,4.6,-,N/A,,Unknown,40,2013-05-20 12:52:00
6:52 AM,52.0,43.0,71,29.88,-9999.0,Calm,Calm,-,N/A,,Unknown,0,2013-05-20 13:52:00
7:52 AM,64.0,46.9,54,29.87,-9999.0,Calm,Calm,-,N/A,,Unknown,0,2013-05-20 14:52:00
8:52 AM,78.1,28.9,17,29.86,-9999.0,ENE,24.2,28.8,N/A,,Unknown,60,2013-05-20 15:52:00
9:52 AM,80.1,28.0,15,29.87,-9999.0,ENE,25.3,31.1,N/A,,Unknown,70,2013-05-20 16:52:00
10:52 AM,81.0,25.0,13,29.87,-9999.0,NE,24.2,33.4,N/A,,Unknown,50,2013-05-20 17:52:00
11:52 AM,82.9,26.1,13,29.87,-9999.0,ENE,17.3,24.2,N/A,,Unknown,70,2013-05-20 18:52:00
12:52 PM,84.9,28.0,13,29.88,-9999.0,ENE,17.3,25.3,N/A,,Unknown,70,2013-05-20 19:52:00
1:52 PM,84.9,27.0,12,29.87,-9999.0,ENE,16.1,19.6,N/A,,Unknown,70,2013-05-20 20:52:00
2:52 PM,86.0,27.0,12,29.86,-9999.0,East,8.1,-,N/A,,Unknown,100,2013-05-20 21:52:00
3:52 PM,87.1,26.1,11,29.83,-9999.0,East,9.2,-,N/A,,Unknown,90,2013-05-20 22:52:00
4:52 PM,86.0,46.0,25,29.83,-9999.0,West,11.5,18.4,N/A,,Unknown,270,2013-05-20 23:52:00
5:52 PM,84.0,39.9,21,29.83,-9999.0,WNW,12.7,-,N/A,,Unknown,300,2013-05-21 00:52:00
6:52 PM,75.9,52.0,43,29.83,-9999.0,SW,8.1,-,N/A,,Unknown,220,2013-05-21 01:52:00
7:52 PM,70.0,52.0,53,29.83,-9999.0,SSW,5.8,-,N/A,,Unknown,200,2013-05-21 02:52:00
8:52 PM,62.1,48.9,62,29.84,-9999.0,ENE,3.5,-,N/A,,Unknown,60,2013-05-21 03:52:00
9:52 PM,60.1,45.0,57,29.87,-9999.0,Calm,Calm,-,N/A,,Unknown,0,2013-05-21 04:52:00
10:52 PM,57.0,37.9,49,29.88,-9999.0,NE,5.8,-,N/A,,Unknown,40,2013-05-21 05:52:00
11:52 PM,55.0,34.0,45,29.87,-9999.0,NE,5.8,-,N/A,,Unknown,50,2013-05-21 06:52:00